| time (UTC) | temp F | wind direction | speed knots | gust knots | rain 1hr in | rain 24hr in | rain mn in | humidity % | barometer mb |
| 20260508191623 | 70 | 205 | 6.1 | 13.0 | 0.00 | 0.00 | 0.00 | 28 | 1016.5 |
| 20260508190614 | 71 | 244 | 7.0 | 11.3 | 0.00 | 0.00 | 0.00 | 32 | 1016.5 |
| 20260508185631 | 70 | 220 | 8.7 | 14.8 | 0.00 | 0.00 | 0.00 | 28 | 1016.5 |
| 20260508184622 | 70 | 217 | 6.1 | 12.2 | 0.00 | 0.00 | 0.00 | 29 | 1016.6 |
| 20260508183651 | 70 | 270 | 2.6 | 11.3 | 0.00 | 0.00 | 0.00 | 32 | 1016.7 |
| 20260508182620 | 70 | 229 | 4.3 | 9.6 | 0.00 | 0.00 | 0.00 | 32 | 1016.8 |
| 20260508181629 | 69 | 236 | 3.5 | 7.0 | 0.00 | 0.00 | 0.00 | 34 | 1016.9 |
| 20260508180648 | 68 | 227 | 2.6 | 7.8 | 0.00 | 0.00 | 0.00 | 32 | 1017.0 |
| 20260508175629 | 68 | 290 | 3.5 | 7.8 | 0.00 | 0.00 | 0.00 | 34 | 1017.2 |
| 20260508174637 | 67 | 232 | 3.5 | 7.8 | 0.00 | 0.00 | 0.00 | 35 | 1017.2 |
| 20260508173623 | 66 | 263 | 4.3 | 9.6 | 0.00 | 0.00 | 0.00 | 38 | 1017.3 |
| 20260508172630 | 65 | 261 | 5.2 | 8.7 | 0.00 | 0.00 | 0.00 | 45 | 1017.3 |
| 20260508171623 | 63 | 281 | 1.7 | 4.3 | 0.00 | 0.00 | 0.00 | 48 | 1017.4 |
| 20260508170630 | 62 | 253 | 1.7 | 3.5 | 0.00 | 0.00 | 0.00 | 49 | 1017.5 |
| 20260508165631 | 60 | 277 | 0.9 | 2.6 | 0.00 | 0.00 | 0.00 | 52 | 1017.5 |
| 20260508164620 | 58 | 194 | 1.7 | 4.3 | 0.00 | 0.00 | 0.00 | 56 | 1017.6 |
| 20260508163629 | 57 | 302 | 0.9 | 4.3 | 0.00 | 0.00 | 0.00 | 58 | 1017.6 |
| 20260508162613 | 55 | 273 | 1.7 | 3.5 | 0.00 | 0.00 | 0.00 | 61 | 1017.7 |
| 20260508161622 | 54 | 238 | 1.7 | 3.5 | 0.00 | 0.00 | 0.00 | 65 | 1017.7 |
| 20260508160632 | 53 | 262 | 1.7 | 2.6 | 0.00 | 0.00 | 0.00 | 65 | 1017.9 |
| 20260508155635 | 52 | 262 | 1.7 | 3.5 | 0.00 | 0.00 | 0.00 | 67 | 1017.9 |
| 20260508154623 | 50 | 281 | 2.6 | 4.3 | 0.00 | 0.00 | 0.00 | 70 | 1018.0 |
| 20260508153652 | 49 | 269 | 1.7 | 2.6 | 0.00 | 0.00 | 0.00 | 72 | 1018.1 |
| 20260508152619 | 48 | 269 | 0.9 | 1.7 | 0.00 | 0.00 | 0.00 | 76 | 1018.1 |
| 20260508151624 | 46 | 269 | 0.9 | 2.6 | 0.00 | 0.00 | 0.00 | 81 | 1018.0 |
| 20260508150614 | 44 | 269 | 0.9 | 2.6 | 0.00 | 0.00 | 0.00 | 83 | 1018.0 |
| 20260508145613 | 43 | 269 | 0.0 | 0.9 | 0.00 | 0.00 | 0.00 | 83 | 1018.0 |
| 20260508144620 | 43 | 269 | 1.7 | 2.6 | 0.00 | 0.00 | 0.00 | 83 | 1018.2 |
| 20260508143627 | 43 | 269 | 0.9 | 2.6 | 0.00 | 0.00 | 0.00 | 81 | 1018.1 |
| 20260508142618 | 43 | 269 | 0.0 | 0.0 | 0.00 | 0.00 | 0.00 | 81 | 1018.1 |
| 20260508141628 | 43 | 269 | 0.0 | 0.0 | 0.00 | 0.00 | 0.00 | 84 | 1018.1 |
| 20260508140615 | 42 | 269 | 0.0 | 0.0 | 0.00 | 0.00 | 0.00 | 86 | 1018.1 |
| 20260508135632 | 41 | 269 | 0.0 | 0.0 | 0.00 | 0.00 | 0.00 | 87 | 1018.1 |
| 20260508134626 | 40 | 269 | 0.0 | 0.0 | 0.00 | 0.00 | 0.00 | 87 | 1018.1 |
| 20260508133634 | 39 | 269 | 0.0 | 0.0 | 0.00 | 0.00 | 0.00 | 87 | 1018.0 |
| 20260508132619 | 38 | 269 | 0.9 | 1.7 | 0.00 | 0.00 | 0.00 | 87 | 1017.9 |
| 20260508131627 | 38 | 269 | 0.0 | 2.6 | 0.00 | 0.00 | 0.00 | 86 | 1017.8 |
| 20260508130619 | 38 | 269 | 0.9 | 0.9 | 0.00 | 0.00 | 0.00 | 86 | 1017.8 |
| 20260508125616 | 38 | 269 | 1.7 | 2.6 | 0.00 | 0.00 | 0.00 | 85 | 1017.6 |
| 20260508124644 | 38 | 269 | 0.9 | 2.6 | 0.00 | 0.00 | 0.00 | 85 | 1017.4 |
| 20260508123632 | 38 | 269 | 1.7 | 3.5 | 0.00 | 0.00 | 0.00 | 85 | 1017.4 |
| 20260508122621 | 38 | 269 | 0.9 | 3.5 | 0.00 | 0.00 | 0.00 | 84 | 1017.2 |
| 20260508121628 | 38 | 263 | 0.0 | 2.6 | 0.00 | 0.00 | 0.00 | 83 | 1017.1 |
| 20260508120613 | 39 | 263 | 2.6 | 3.5 | 0.00 | 0.00 | 0.00 | 81 | 1017.1 |
| 20260508115653 | 40 | 292 | 0.0 | 3.5 | 0.00 | 0.00 | 0.00 | 80 | 1017.0 |
| 20260508114618 | 40 | 236 | 1.7 | 3.5 | 0.00 | 0.00 | 0.00 | 79 | 1016.9 |
| 20260508113647 | 42 | 355 | 0.9 | 3.5 | 0.00 | 0.00 | 0.00 | 78 | 1016.8 |
| 20260508112652 | 42 | 34 | 0.0 | 1.7 | 0.00 | 0.00 | 0.00 | 79 | 1016.8 |
| 20260508111618 | 42 | 40 | 0.0 | 2.6 | 0.00 | 0.00 | 0.00 | 80 | 1016.8 |
| 20260508110628 | 41 | 40 | 0.9 | 3.5 | 0.00 | 0.00 | 0.00 | 80 | 1016.7 |
| 20260508105627 | 41 | 160 | 0.0 | 2.6 | 0.00 | 0.00 | 0.00 | 80 | 1016.7 |
| 20260508104620 | 41 | 161 | 0.9 | 3.5 | 0.00 | 0.00 | 0.00 | 81 | 1016.8 |
| 20260508103626 | 41 | 203 | 0.0 | 2.6 | 0.00 | 0.00 | 0.00 | 82 | 1016.7 |
| 20260508102614 | 40 | 203 | 0.9 | 2.6 | 0.00 | 0.00 | 0.00 | 82 | 1016.6 |
| 20260508101625 | 40 | 202 | 0.9 | 2.6 | 0.00 | 0.00 | 0.00 | 82 | 1016.8 |
| 20260508100653 | 40 | 202 | 2.6 | 3.5 | 0.00 | 0.00 | 0.00 | 81 | 1016.6 |
| 20260508095631 | 40 | 268 | 0.0 | 0.9 | 0.00 | 0.00 | 0.00 | 81 | 1016.6 |
| 20260508094616 | 40 | 268 | 0.9 | 1.7 | 0.00 | 0.00 | 0.00 | 81 | 1016.5 |
| 20260508093623 | 40 | 267 | 0.0 | 2.6 | 0.00 | 0.00 | 0.00 | 79 | 1016.4 |
| 20260508092616 | 41 | 271 | 1.7 | 2.6 | 0.00 | 0.00 | 0.00 | 77 | 1016.4 |
| 20260508091625 | 42 | 270 | 0.9 | 2.6 | 0.00 | 0.00 | 0.00 | 77 | 1016.3 |
| 20260508090651 | 42 | 271 | 0.0 | 1.7 | 0.00 | 0.00 | 0.00 | 79 | 1016.2 |
| 20260508085625 | 41 | 271 | 0.0 | 0.0 | 0.00 | 0.00 | 0.00 | 77 | 1016.2 |
| 20260508084614 | 42 | 271 | 1.7 | 2.6 | 0.00 | 0.00 | 0.00 | 76 | 1016.3 |
| 20260508083622 | 43 | 248 | 1.7 | 2.6 | 0.00 | 0.00 | 0.00 | 74 | 1016.2 |
| 20260508082631 | 43 | 248 | 0.9 | 2.6 | 0.00 | 0.00 | 0.00 | 74 | 1016.2 |
| 20260508081635 | 44 | 247 | 0.9 | 2.6 | 0.00 | 0.00 | 0.00 | 73 | 1016.3 |
| 20260508080624 | 45 | 247 | 0.0 | 1.7 | 0.00 | 0.00 | 0.00 | 71 | 1016.2 |
| 20260508075623 | 46 | 247 | 0.0 | 0.9 | 0.00 | 0.00 | 0.00 | 71 | 1016.2 |
| 20260508074631 | 46 | 247 | 0.0 | 1.7 | 0.00 | 0.00 | 0.00 | 70 | 1016.2 |
| 20260508073621 | 46 | 247 | 1.7 | 3.5 | 0.00 | 0.00 | 0.00 | 68 | 1016.3 |
| 20260508072614 | 47 | 189 | 0.0 | 2.6 | 0.00 | 0.00 | 0.00 | 67 | 1016.2 |
| 20260508071622 | 48 | 172 | 0.9 | 3.5 | 0.00 | 0.00 | 0.00 | 65 | 1016.2 |
| 20260508070630 | 49 | 149 | 0.0 | 1.7 | 0.00 | 0.00 | 0.00 | 65 | 1016.1 |
| 20260508065651 | 48 | 149 | 1.7 | 2.6 | 0.00 | 0.00 | 0.00 | 64 | 1016.0 |
| 20260508064621 | 49 | 152 | 0.0 | 2.6 | 0.00 | 0.00 | 0.00 | 63 | 1015.9 |
| 20260508063629 | 49 | 150 | 0.9 | 2.6 | 0.00 | 0.00 | 0.00 | 62 | 1015.9 |
| 20260508062615 | 50 | 150 | 1.7 | 2.6 | 0.00 | 0.00 | 0.00 | 60 | 1015.8 |
| 20260508061625 | 51 | 144 | 0.9 | 2.6 | 0.00 | 0.00 | 0.00 | 59 | 1015.8 |
| 20260508060624 | 51 | 144 | 0.9 | 2.6 | 0.00 | 0.00 | 0.00 | 59 | 1015.8 |
| 20260508055624 | 51 | 144 | 1.7 | 2.6 | 0.00 | 0.00 | 0.00 | 58 | 1015.7 |
| 20260508054630 | 52 | 144 | 0.0 | 0.9 | 0.00 | 0.00 | 0.00 | 57 | 1015.7 |
| 20260508053615 | 52 | 144 | 0.9 | 1.7 | 0.00 | 0.00 | 0.00 | 58 | 1015.6 |
| 20260508052623 | 52 | 144 | 0.9 | 2.6 | 0.00 | 0.00 | 0.00 | 56 | 1015.4 |
| 20260508051636 | 53 | 145 | 0.9 | 1.7 | 0.00 | 0.00 | 0.00 | 55 | 1015.4 |
| 20260508050623 | 53 | 145 | 0.9 | 4.3 | 0.00 | 0.00 | 0.00 | 55 | 1015.3 |
| 20260508045620 | 54 | 136 | 1.7 | 3.5 | 0.00 | 0.00 | 0.00 | 53 | 1015.3 |
| 20260508044627 | 55 | 94 | 1.7 | 3.5 | 0.00 | 0.00 | 0.00 | 53 | 1015.2 |
| 20260508043622 | 55 | 26 | 0.0 | 1.7 | 0.00 | 0.00 | 0.00 | 52 | 1015.2 |
| 20260508042612 | 56 | 25 | 2.6 | 3.5 | 0.00 | 0.00 | 0.00 | 51 | 1015.3 |
| 20260508041622 | 56 | 105 | 0.9 | 3.5 | 0.00 | 0.00 | 0.00 | 50 | 1015.3 |
| 20260508040630 | 56 | 116 | 0.9 | 2.6 | 0.00 | 0.00 | 0.00 | 50 | 1015.1 |
| 20260508035625 | 57 | 116 | 1.7 | 2.6 | 0.00 | 0.00 | 0.00 | 50 | 1015.0 |
| 20260508034615 | 57 | 117 | 1.7 | 3.5 | 0.00 | 0.00 | 0.00 | 50 | 1015.0 |
| 20260508033643 | 57 | 163 | 3.5 | 4.3 | 0.00 | 0.00 | 0.00 | 51 | 1014.8 |
| 20260508032630 | 57 | 307 | 0.9 | 1.7 | 0.00 | 0.00 | 0.00 | 51 | 1014.7 |
| 20260508031638 | 58 | 306 | 0.9 | 3.5 | 0.00 | 0.00 | 0.00 | 50 | 1014.6 |
| 20260508030627 | 59 | 281 | 2.6 | 3.5 | 0.00 | 0.00 | 0.00 | 47 | 1014.3 |
| 20260508025645 | 62 | 290 | 1.7 | 3.5 | 0.00 | 0.00 | 0.00 | 42 | 1014.3 |
| 20260508024632 | 63 | 244 | 0.9 | 1.7 | 0.00 | 0.00 | 0.00 | 40 | 1014.3 |
| 20260508023619 | 65 | 244 | 1.7 | 2.6 | 0.00 | 0.00 | 0.00 | 39 | 1014.2 |
| 20260508022625 | 65 | 244 | 0.9 | 3.5 | 0.00 | 0.00 | 0.00 | 39 | 1014.0 |
| 20260508021613 | 67 | 229 | 1.7 | 2.6 | 0.00 | 0.00 | 0.00 | 38 | 1013.9 |
| 20260508020621 | 68 | 228 | 0.9 | 1.7 | 0.00 | 0.00 | 0.00 | 35 | 1013.9 |
| 20260508015618 | 69 | 228 | 0.0 | 2.6 | 0.00 | 0.00 | 0.00 | 35 | 1013.9 |
| 20260508014613 | 69 | 228 | 0.9 | 4.3 | 0.00 | 0.00 | 0.00 | 33 | 1013.9 |
| 20260508013623 | 70 | 226 | 3.5 | 5.2 | 0.00 | 0.00 | 0.00 | 32 | 1013.9 |
| 20260508012631 | 70 | 229 | 2.6 | 6.1 | 0.00 | 0.00 | 0.00 | 31 | 1013.9 |
| 20260508011620 | 70 | 241 | 2.6 | 6.1 | 0.00 | 0.00 | 0.00 | 32 | 1013.9 |
| 20260508010614 | 71 | 281 | 2.6 | 3.5 | 0.00 | 0.00 | 0.00 | 35 | 1013.9 |
| 20260508005614 | 71 | 257 | 3.5 | 5.2 | 0.00 | 0.00 | 0.00 | 33 | 1013.8 |
| 20260508004621 | 71 | 246 | 4.3 | 8.7 | 0.00 | 0.00 | 0.00 | 32 | 1013.8 |
| 20260508003629 | 72 | 248 | 2.6 | 3.5 | 0.00 | 0.00 | 0.00 | 28 | 1013.8 |
| 20260508002621 | 72 | 271 | 2.6 | 3.5 | 0.00 | 0.00 | 0.00 | 29 | 1013.9 |
| 20260508001613 | 71 | 191 | 1.7 | 7.0 | 0.00 | 0.00 | 0.00 | 30 | 1014.1 |
| 20260508000621 | 71 | 267 | 4.3 | 7.0 | 0.00 | 0.00 | 0.00 | 31 | 1014.3 |
| 20260507235619 | 71 | 287 | 1.7 | 7.0 | 0.00 | 0.00 | 0.00 | 28 | 1014.3 |
| 20260507234614 | 71 | 257 | 2.6 | 6.1 | 0.00 | 0.00 | 0.00 | 29 | 1014.5 |
| 20260507233624 | 71 | 261 | 2.6 | 6.1 | 0.00 | 0.00 | 0.00 | 31 | 1014.6 |
| 20260507232652 | 70 | 313 | 3.5 | 8.7 | 0.00 | 0.00 | 0.00 | 29 | 1014.6 |
| 20260507231619 | 69 | 306 | 2.6 | 6.1 | 0.00 | 0.00 | 0.00 | 32 | 1014.7 |
| 20260507230630 | 68 | 274 | 6.1 | 7.8 | 0.00 | 0.00 | 0.00 | 32 | 1014.8 |
| 20260507225631 | 68 | 247 | 2.6 | 7.0 | 0.00 | 0.00 | 0.00 | 34 | 1015.0 |
| 20260507224617 | 68 | 264 | 2.6 | 8.7 | 0.00 | 0.00 | 0.00 | 37 | 1015.2 |
| 20260507223626 | 68 | 245 | 5.2 | 8.7 | 0.00 | 0.00 | 0.00 | 35 | 1015.3 |
| 20260507222618 | 68 | 218 | 7.0 | 9.6 | 0.00 | 0.00 | 0.00 | 29 | 1015.3 |
| 20260507221626 | 68 | 223 | 4.3 | 9.6 | 0.00 | 0.00 | 0.00 | 34 | 1015.4 |
| 20260507220614 | 69 | 281 | 6.1 | 9.6 | 0.00 | 0.00 | 0.00 | 32 | 1015.4 |
| 20260507215614 | 69 | 279 | 6.1 | 11.3 | 0.00 | 0.00 | 0.00 | 33 | 1015.5 |
| 20260507214641 | 70 | 263 | 8.7 | 13.9 | 0.00 | 0.00 | 0.00 | 31 | 1015.4 |
| 20260507213631 | 71 | 263 | 7.8 | 13.0 | 0.00 | 0.00 | 0.00 | 28 | 1015.6 |
| 20260507212619 | 70 | 226 | 6.1 | 11.3 | 0.00 | 0.00 | 0.00 | 30 | 1015.8 |
| 20260507211627 | 70 | 251 | 7.0 | 16.5 | 0.00 | 0.00 | 0.00 | 27 | 1015.9 |
| 20260507210621 | 71 | 186 | 8.7 | 15.6 | 0.00 | 0.00 | 0.00 | 26 | 1016.1 |
| 20260507205623 | 69 | 214 | 10.4 | 14.8 | 0.00 | 0.00 | 0.00 | 27 | 1016.1 |
| 20260507204632 | 70 | 240 | 7.0 | 14.8 | 0.00 | 0.00 | 0.00 | 29 | 1016.1 |
| 20260507203622 | 70 | 243 | 7.0 | 13.9 | 0.00 | 0.00 | 0.00 | 28 | 1016.2 |
| 20260507202615 | 69 | 219 | 7.0 | 13.0 | 0.00 | 0.00 | 0.00 | 29 | 1016.4 |
| 20260507201623 | 68 | 229 | 6.1 | 10.4 | 0.00 | 0.00 | 0.00 | 29 | 1016.4 |
| 20260507200651 | 68 | 239 | 7.0 | 13.9 | 0.00 | 0.00 | 0.00 | 30 | 1016.5 |
| 20260507195631 | 67 | 240 | 5.2 | 13.0 | 0.00 | 0.00 | 0.00 | 29 | 1016.6 |
| 20260507194625 | 67 | 192 | 6.1 | 10.4 | 0.00 | 0.00 | 0.00 | 30 | 1016.7 |
| 20260507193636 | 67 | 202 | 7.0 | 13.9 | 0.00 | 0.00 | 0.00 | 28 | 1016.8 |
| 20260507192626 | 67 | 240 | 7.8 | 9.6 | 0.00 | 0.00 | 0.00 | 28 | 1016.9 |